Total_Precipitation_Accumulation
0.00 0.00 0.00 0.00 0.00 0.00 0.00 0.00 0.00 0.00 0.00 0.00 0.00 0.00 0.00 0.00 0.00 0.00 0.00 0.00 0.00 0.00 0.01 0.01 0.02 0.04 0.06 0.09 0.11 0.13 0.13 0.13 0.13 0.13 0.14 0.15 0.15 0.16 0.16 0.17 0.18 0.19 0.20
0.00 0.00 0.00 0.00 0.00 0.00 0.00 0.00 0.00 0.00 0.00 0.00 0.00 0.00 0.00 0.00 0.00 0.00 0.00 0.00 0.00 0.00 0.00 0.00 0.01 0.03 0.05 0.07 0.10 0.12 0.13 0.13 0.13 0.14 0.15 0.16 0.17 0.18 0.19 0.20 0.21 0.22 0.22
0.00 0.00 0.00 0.00 0.00 0.00 0.00 0.00 0.00 0.00 0.00 0.00 0.00 0.00 0.00 0.00 0.00 0.00 0.00 0.00 0.00 0.00 0.00 0.00 0.01 0.02 0.03 0.04 0.06 0.08 0.10 0.13 0.14 0.16 0.17 0.19 0.20 0.21 0.23 0.25 0.26 0.27 0.28
0.01 0.00 0.00 0.00 0.00 0.00 0.00 0.00 0.00 0.00 0.00 0.00 0.00 0.00 0.00 0.00 0.00 0.00 0.00 0.00 0.00 0.00 0.00 0.00 0.01 0.01 0.01 0.02 0.03 0.05 0.08 0.10 0.12 0.13 0.15 0.17 0.19 0.22 0.25 0.29 0.32 0.35 0.38
0.02 0.01 0.00 0.00 0.00 0.00 0.00 0.00 0.00 0.00 0.00 0.00 0.00 0.00 0.00 0.00 0.00 0.00 0.00 0.00 0.00 0.00 0.00 0.00 0.00 0.00 0.01 0.01 0.01 0.03 0.06 0.08 0.10 0.12 0.13 0.15 0.17 0.20 0.24 0.28 0.33 0.39 0.46
0.03 0.01 0.01 0.00 0.00 0.00 0.00 0.00 0.00 0.00 0.00 0.00 0.00 0.00 0.00 0.00 0.00 0.00 0.00 0.00 0.00 0.00 0.00 0.00 0.00 0.00 0.00 0.01 0.02 0.02 0.04 0.06 0.08 0.10 0.12 0.14 0.16 0.19 0.23 0.27 0.33 0.40 0.51
0.06 0.03 0.01 0.01 0.00 0.00 0.00 0.00 0.00 0.00 0.00 0.00 0.00 0.01 0.00 0.00 0.00 0.00 0.00 0.00 0.00 0.00 0.00 0.00 0.00 0.01 0.01 0.01 0.02 0.02 0.02 0.04 0.06 0.09 0.12 0.14 0.17 0.21 0.25 0.30 0.37 0.44 0.52
0.09 0.07 0.04 0.02 0.01 0.01 0.00 0.00 0.00 0.00 0.00 0.00 0.01 0.03 0.01 0.00 0.00 0.00 0.00 0.00 0.00 0.00 0.00 0.00 0.01 0.01 0.01 0.02 0.01 0.01 0.01 0.02 0.04 0.09 0.14 0.17 0.20 0.24 0.29 0.36 0.44 0.49 0.55
0.11 0.09 0.06 0.05 0.03 0.02 0.01 0.01 0.01 0.01 0.02 0.01 0.01 0.04 0.05 0.03 0.02 0.01 0.00 0.00 0.00 0.00 0.00 0.00 0.00 0.00 0.01 0.01 0.01 0.01 0.01 0.02 0.03 0.07 0.14 0.21 0.26 0.33 0.39 0.46 0.50 0.55 0.61
0.10 0.09 0.07 0.06 0.05 0.04 0.03 0.02 0.02 0.02 0.03 0.03 0.02 0.03 0.05 0.06 0.07 0.05 0.02 0.01 0.00 0.00 0.00 0.00 0.00 0.00 0.00 0.01 0.01 0.01 0.02 0.03 0.05 0.07 0.14 0.25 0.34 0.44 0.54 0.61 0.67 0.72 0.74
0.08 0.08 0.07 0.07 0.06 0.05 0.04 0.03 0.03 0.04 0.05 0.06 0.06 0.06 0.06 0.07 0.09 0.11 0.07 0.03 0.01 0.00 0.00 0.00 0.00 0.00 0.00 0.01 0.01 0.02 0.03 0.06 0.08 0.11 0.19 0.31 0.42 0.54 0.69 0.81 0.88 0.90 0.90
0.07 0.07 0.07 0.07 0.05 0.04 0.04 0.03 0.04 0.04 0.05 0.07 0.08 0.09 0.11 0.12 0.10 0.11 0.10 0.06 0.04 0.01 0.00 0.00 0.00 0.00 0.01 0.02 0.02 0.03 0.04 0.06 0.09 0.12 0.21 0.36 0.48 0.59 0.73 0.88 0.98 1.03 1.06
0.08 0.08 0.07 0.06 0.05 0.04 0.03 0.04 0.04 0.04 0.05 0.06 0.07 0.09 0.11 0.13 0.13 0.14 0.15 0.10 0.07 0.04 0.02 0.01 0.02 0.02 0.03 0.04 0.04 0.04 0.04 0.05 0.07 0.10 0.18 0.34 0.44 0.50 0.56 0.67 0.85 1.00 1.11
0.11 0.10 0.08 0.06 0.05 0.03 0.03 0.03 0.03 0.04 0.05 0.07 0.08 0.10 0.13 0.14 0.16 0.17 0.19 0.20 0.18 0.10 0.06 0.03 0.04 0.05 0.05 0.06 0.06 0.07 0.06 0.06 0.07 0.11 0.16 0.24 0.31 0.34 0.40 0.49 0.62 0.78 0.91
0.08 0.08 0.06 0.05 0.04 0.03 0.02 0.02 0.03 0.03 0.05 0.06 0.08 0.10 0.12 0.13 0.15 0.17 0.20 0.24 0.27 0.21 0.11 0.06 0.05 0.04 0.05 0.06 0.06 0.08 0.08 0.07 0.10 0.13 0.15 0.17 0.21 0.25 0.29 0.35 0.44 0.54 0.64
0.05 0.05 0.04 0.03 0.03 0.02 0.02 0.01 0.01 0.01 0.02 0.03 0.05 0.07 0.09 0.10 0.11 0.14 0.16 0.19 0.23 0.26 0.17 0.06 0.05 0.05 0.07 0.07 0.07 0.10 0.09 0.11 0.13 0.13 0.15 0.17 0.20 0.22 0.25 0.28 0.33 0.39 0.47
0.03 0.03 0.03 0.03 0.02 0.02 0.01 0.01 0.00 0.00 0.01 0.02 0.03 0.05 0.07 0.08 0.10 0.10 0.12 0.14 0.17 0.22 0.21 0.09 0.06 0.09 0.10 0.09 0.10 0.12 0.11 0.11 0.10 0.11 0.15 0.18 0.20 0.24 0.27 0.29 0.31 0.35 0.39
0.03 0.03 0.03 0.02 0.02 0.01 0.01 0.00 0.00 0.00 0.00 0.00 0.01 0.03 0.05 0.07 0.08 0.09 0.11 0.12 0.14 0.17 0.25 0.21 0.11 0.12 0.12 0.14 0.17 0.18 0.16 0.15 0.13 0.12 0.16 0.20 0.23 0.26 0.28 0.30 0.34 0.39 0.42
0.02 0.02 0.02 0.02 0.01 0.01 0.01 0.01 0.01 0.00 0.00 0.00 0.00 0.01 0.03 0.05 0.06 0.06 0.07 0.10 0.13 0.18 0.26 0.30 0.20 0.17 0.15 0.15 0.18 0.19 0.18 0.16 0.15 0.16 0.20 0.22 0.24 0.27 0.30 0.34 0.38 0.41 0.44
0.02 0.02 0.01 0.01 0.01 0.01 0.01 0.01 0.01 0.00 0.00 0.00 0.00 0.01 0.01 0.02 0.02 0.03 0.06 0.10 0.16 0.21 0.25 0.31 0.30 0.23 0.22 0.19 0.21 0.18 0.16 0.15 0.16 0.17 0.21 0.25 0.29 0.33 0.35 0.38 0.41 0.43 0.46
0.02 0.02 0.02 0.02 0.02 0.01 0.01 0.01 0.01 0.01 0.00 0.00 0.00 0.00 0.00 0.01 0.01 0.04 0.09 0.14 0.21 0.29 0.38 0.45 0.44 0.37 0.31 0.26 0.22 0.22 0.27 0.27 0.26 0.23 0.24 0.27 0.32 0.37 0.40 0.42 0.45 0.46 0.48
0.03 0.03 0.03 0.03 0.03 0.02 0.01 0.01 0.01 0.01 0.01 0.00 0.00 0.00 0.00 0.00 0.01 0.05 0.09 0.19 0.34 0.47 0.58 0.62 0.59 0.50 0.37 0.32 0.32 0.37 0.46 0.54 0.48 0.29 0.32 0.35 0.36 0.43 0.43 0.45 0.51 0.54 0.55
0.05 0.05 0.04 0.04 0.03 0.02 0.01 0.01 0.01 0.00 0.00 0.00 0.00 0.00 0.01 0.01 0.02 0.03 0.07 0.18 0.29 0.40 0.48 0.51 0.50 0.39 0.35 0.34 0.47 0.61 0.64 0.69 0.56 0.37 0.43 0.49 0.41 0.43 0.44 0.48 0.57 0.57 0.54
0.06 0.05 0.04 0.02 0.02 0.01 0.01 0.00 0.00 0.00 0.00 0.00 0.00 0.01 0.01 0.01 0.02 0.07 0.15 0.24 0.20 0.17 0.22 0.27 0.31 0.33 0.37 0.43 0.59 0.81 0.88 0.88 0.70 0.53 0.50 0.55 0.41 0.38 0.40 0.44 0.51 0.50 0.46
0.07 0.04 0.02 0.02 0.01 0.01 0.01 0.01 0.01 0.00 0.00 0.00 0.00 0.01 0.03 0.03 0.05 0.18 0.30 0.33 0.22 0.13 0.15 0.23 0.32 0.35 0.37 0.39 0.47 0.74 0.92 0.98 0.83 0.55 0.47 0.55 0.51 0.47 0.45 0.42 0.44 0.48 0.46
0.04 0.03 0.02 0.01 0.01 0.00 0.00 0.01 0.01 0.02 0.02 0.02 0.02 0.02 0.03 0.06 0.13 0.25 0.30 0.32 0.26 0.18 0.21 0.24 0.26 0.27 0.26 0.30 0.39 0.58 1.00 1.37 1.15 0.79 0.50 0.60 0.62 0.65 0.74 0.48 0.42 0.45 0.45